Content
SEND FEEDBACK

Daily
Averages
Monthly
Summary
United States of America

HOLYOKE, MASSACHUSETTS


Home > North America > United States > Massachusetts
Elevation: 100 feet     Latitude: 42 12N     Longitude: 072 36W

WEATHER
 
SELECT A DAY
Number of Records: 227,065;   Date Range: 1/1/95 - 8/28/14
 
SHARE

PRINT THIS DATA

[ ← Previous Day ]
WEATHER ALMANAC - JANUARY 23, 2013
[ Next Day → ]
[ °C ]   °F
Weather ElementAverageHighLow
Temperature9.2 °F15.1 °F (12:55 pm)5.2 °F (6:55 am)
Dewpoint-6.6 °F-3.5 °F (9:55 am)-10.5 °F (7:55 pm)
Humidity49.4 %60 % (6:55 am)38 % (3:55 pm)
Barometer30.15 in30.19 in (9:55 am)30.12 in (1:55 am)
Wind Speed12.9 mph20.7 mph (3:55 pm)
Wind Gust29.9 mph (12:55 pm)
Weather ElementAverage
Visibility10 mi
Wind DirectionWNW (288.1 °)

Weather ElementTotal
Precipitation---
Heating Degree Days54.9 (Base 65)
Averaged from 21 records on January 23, 2013
WEATHER CONDITIONS BREAKOUT
WIND DIRECTION BREAKOUT
WEATHER BY HOUR - JANUARY 23, 2013
[ °C ]   °F
Local TimeTemperatureDewpointHumidityBarometerVisibilityWind DirectionWind SpeedGust SpeedPrecipitationEventsConditions
1:55 AM8.2 °F-5.6 °F53 %30.12 in10.0 miWNW (290°)11.5 mphClear
2:55 AM7.7 °F-4.5 °F57 %30.13 in10.0 miWest (280°)9.2 mphClear
3:55 AM7.9 °F-4.7 °F57 %30.14 in10.0 miWest (270°)13.8 mphClear
4:55 AM7.2 °F-5.6 °F56 %30.14 in10.0 miWest (280°)13.8 mphClear
5:55 AM6.4 °F-5.8 °F57 %30.16 in10.0 miWest (270°)11.5 mphClear
6:55 AM5.2 °F-6.2 °F60 %30.17 in10.0 miWNW (300°)5.8 mphPartly Cloudy
7:55 AM5.5 °F-5.6 °F60 %30.18 in10.0 miWest (280°)9.2 mphClear
8:55 AM7.7 °F-4.4 °F58 %30.18 in10.0 miWest (270°)11.5 mphClear
9:55 AM9.9 °F-3.5 °F55 %30.19 in10.0 miWNW (290°)6.9 mphScattered Clouds
10:55 AM12.2 °F-4.5 °F47 %30.17 in10.0 miNW (310°)13.8 mph24.2 mphPartly Cloudy
11:55 AM14.0 °F-4.2 °F44 %30.14 in10.0 miWNW (290°)17.3 mph24.2 mphClear
12:55 PM15.1 °F-4.7 °F41 %30.12 in10.0 miWest (280°)17.3 mph29.9 mphOvercast
1:55 PM13.8 °F-6.2 °F41 %30.12 in10.0 miNW (310°)18.4 mph27.6 mphScattered Clouds
2:55 PM14.0 °F-6.9 °F39 %30.12 in10.0 miWNW (290°)19.6 mph27.6 mphPartly Cloudy
3:55 PM12.9 °F-8.3 °F38 %30.12 in10.0 miNW (310°)20.7 mph29.9 mphClear
4:55 PM10.9 °F-8.7 °F41 %30.14 in10.0 miWest (280°)15.0 mph26.5 mphClear
6:55 PM8.6 °F-9.8 °F43 %30.17 in10.0 miWNW (290°)11.5 mph20.7 mphClear
7:55 PM7.5 °F-10.5 °F44 %30.17 in10.0 miWNW (290°)16.1 mphClear
8:55 PM6.8 °F-9.8 °F47 %30.17 in10.0 miWNW (290°)11.5 mphClear
9:55 PM6.1 °F-9.6 °F49 %30.17 in10.0 miWNW (290°)9.2 mphClear
10:55 PM5.2 °F-9.8 °F50 %30.17 in10.0 miWNW (290°)6.9 mphClear
Hourly data recorded from KCEF, located miles away from Holyoke, Massachusetts







STORIES FROM OUR PARTNERS